Regional Weather Roundup
Issued by NWS

Home | Current Version | Previous Version | Graphics & Text | Print | Product List | Glossary On
Versions: 1 2 3 4 5 6 7 8 9 10 11 12 13 14 15 16 17 18 19 20 21 22 23 24 25 26 27 28 29 30 31 32 33 34 35 36 37 38 39 40 41 42 43 44 45 46 47 48 49 50
000
ASUS45 KCYS 282110
RWRWY

WYOMING REGIONAL WEATHER ROUNDUP
NATIONAL WEATHER SERVICE CHEYENNE WY
300 PM MDT THU APR 28 2016

NOTE:  "FAIR" INDICATES FEW OR NO CLOUDS BELOW 12,000 FEET
WITH NO SIGNIFICANT WEATHER AND/OR OBSTRUCTIONS TO VISIBILITY.

WYZ001-282200-
YELLOWSTONE NATIONAL PARK

CITY           SKY/WX    TMP DP  RH WIND       PRES   REMARKS
LK YELLOWSTONE   N/A     37  21  52 VRB5      29.90R WCI  33
W YELLOWSTONE  NOT AVBL

$$
WYZ002>013-054>058-071-098>099-282200-
NORTHERN WYOMING

CITY           SKY/WX    TMP DP  RH WIND       PRES   REMARKS
JACKSON        PTSUNNY   50  23  34 N12       29.81S
CODY           CLOUDY    37  27  65 N8        30.01R WCI  31
GREYBULL       CLOUDY    45  29  53 CALM      30.00R
WORLAND        CLOUDY    40  29  64 CALM      30.00F
SHERIDAN       CLOUDY    38  32  79 W6        30.06S WCI  33
BUFFALO        CLOUDY    36  28  73 N5        30.04S WCI  32
GILLETTE       CLOUDY    38  31  76 NE8       30.03S WCI  32
HULETT         CLOUDY    37  32  81 NE7       30.05S WCI  32
NEWCASTLE      CLOUDY    41  28  60 CALM      30.02S

$$
WYZ014>020-022>026-101>103-282200-
CENTRAL WYOMING

CITY           SKY/WX    TMP DP  RH WIND       PRES   REMARKS
BIG PINEY      CLOUDY    44  28  53 SW16G23   29.88R
PINEDALE       LGT RAIN  41  30  65 N3        29.86R
DUBOIS         CLOUDY    32  27  80 SE14G21   29.93R WCI  22
LANDER         CLOUDY    37  29  72 W6        29.96F WCI  32
RIVERTON       CLOUDY    38  28  67 NE7       29.98S WCI  33
CASPER         CLOUDY    34  27  75 E9        30.00R WCI  27
DOUGLAS        CLOUDY    38  27  64 CALM      30.02R

$$
WYZ021-027>030-104>119-282200-
SOUTHERN WYOMING

CITY           SKY/WX    TMP DP  RH WIND       PRES   REMARKS
EVANSTON       CLOUDY    37  27  67 E25G33    29.84R WCI  25
KEMMERER       LGT SNOW  34  30  86 E21       29.89R WCI  22
FORT BRIDGER   LGT SNOW  34  34 100 E15G22    29.90S WCI  24
ROCK SPRINGS   LGT SNOW  32  28  85 NE24      29.89S FOG     WCI  19
DIXON          CLOUDY    42  37  82 NE6       29.85S
RAWLINS        FOG       32  28  85 E17G26    29.92R VSB 3/4 WCI  21
SARATOGA       LGT RAIN  32  32 100 NW3       29.88F
LARAMIE        LGT SNOW  29  27  92 E5        29.94R VSB 3/4 WCI  24
CHEYENNE       LGT SNOW  34  32  92 SE6       29.98R FOG     WCI  29
TORRINGTON     CLOUDY    45  27  49 NE8       29.99R
PINE BLUFFS    CLOUDY    39  32  75 E8        29.99S WCI  34

$$



USA.gov is the U.S. government's official web portal to all federal, state and local government web resources and services.